"read_dt","SO2 (ppb)","flags","PMT voltage (V)","lamp voltage (V)","lamp intensity (Hz)","internal temp (C)","react chamber temp (C)","sample flow (l/min)","pres (mmHg)","SO2 bkg (ppb)","SO2 coefficient"
2015-02-12 00:00:00,1895E-3,5C000000,-0724,0840,12174,027.9,045.4,0.450,733.5,01.19,0.508
2015-02-12 00:01:00,1963E-3,5C000000,-0724,0839,12099,027.9,045.4,0.450,733.4,01.19,0.508
2015-02-12 00:02:00,1962E-3,5C000000,-0724,0839,12105,028.0,045.4,0.449,733.4,01.19,0.508
2015-02-12 00:03:00,1952E-3,5C000000,-0724,0838,11840,028.1,045.5,0.449,733.5,01.19,0.508
2015-02-12 00:04:00,1804E-3,5C000000,-0724,0840,12152,028.2,045.5,0.449,733.4,01.19,0.508
2015-02-12 00:05:00,1979E-3,5C000000,-0724,0840,12262,028.2,045.5,0.449,733.2,01.19,0.508
2015-02-12 00:06:00,2057E-3,5C000000,-0724,0839,12015,028.3,045.4,0.449,733.4,01.19,0.508
2015-02-12 00:07:00,2055E-3,5C000000,-0724,0840,11997,028.3,045.4,0.449,733.3,01.19,0.508
2015-02-12 00:08:00,1969E-3,5C000000,-0724,0839,11928,028.3,045.4,0.449,733.4,01.19,0.508
2015-02-12 00:09:00,1912E-3,5C000000,-0724,0839,12007,028.3,045.4,0.449,733.3,01.19,0.508
2015-02-12 00:10:00,1993E-3,5C000000,-0724,0839,12088,028.2,045.4,0.449,733.2,01.19,0.508
2015-02-12 00:11:00,1988E-3,5C000000,-0724,0840,12269,028.1,045.4,0.449,733.3,01.19,0.508
2015-02-12 00:12:00,1914E-3,5C000000,-0724,0840,12011,028.1,045.4,0.449,733.2,01.19,0.508
2015-02-12 00:13:00,1914E-3,5C000000,-0724,0839,12071,028.1,045.4,0.449,733.2,01.19,0.508
2015-02-12 00:14:00,2141E-3,5C000000,-0724,0840,12004,028.0,045.4,0.449,733.3,01.19,0.508
2015-02-12 00:15:00,2011E-3,5C000000,-0724,0840,12012,028.0,045.4,0.449,733.2,01.19,0.508
2015-02-12 00:16:00,2018E-3,5C000000,-0724,0840,12046,028.0,045.4,0.449,733.2,01.19,0.508
2015-02-12 00:17:00,2053E-3,5C000000,-0724,0840,12198,027.9,045.4,0.449,733.3,01.19,0.508
2015-02-12 00:18:00,1949E-3,5C000000,-0724,0840,12156,027.9,045.4,0.449,733.2,01.19,0.508
2015-02-12 00:19:00,1984E-3,5C000000,-0724,0841,12022,028.0,045.4,0.449,733.2,01.19,0.508
2015-02-12 00:20:00,2010E-3,5C000000,-0724,0839,12165,028.1,045.4,0.449,733.0,01.19,0.508
2015-02-12 00:21:00,1985E-3,5C000000,-0724,0839,12138,028.1,045.4,0.449,733.2,01.19,0.508
2015-02-12 00:22:00,1966E-3,5C000000,-0724,0840,12076,028.1,045.5,0.449,733.2,01.19,0.508
2015-02-12 00:23:00,1863E-3,5C000000,-0724,0840,12173,028.1,045.5,0.449,733.1,01.19,0.508
2015-02-12 00:24:00,2036E-3,5C000000,-0724,0840,12044,028.1,045.4,0.449,733.1,01.19,0.508
2015-02-12 00:25:00,1979E-3,5C000000,-0724,0839,12185,028.1,045.4,0.449,733.0,01.19,0.508
2015-02-12 00:26:00,1828E-3,5C000000,-0724,0840,12064,028.1,045.4,0.449,732.8,01.19,0.508
2015-02-12 00:27:00,1951E-3,5C000000,-0724,0840,12100,028.0,045.4,0.449,733.2,01.19,0.508
2015-02-12 00:28:00,2015E-3,5C000000,-0724,0840,11971,028.0,045.4,0.449,732.9,01.19,0.508
2015-02-12 00:29:00,1973E-3,5C000000,-0724,0840,12178,028.0,045.4,0.449,733.0,01.19,0.508
2015-02-12 00:30:00,1865E-3,5C000000,-0724,0839,12095,027.9,045.4,0.449,732.9,01.19,0.508
2015-02-12 00:31:00,1874E-3,5C000000,-0724,0839,12141,028.0,045.5,0.449,733.1,01.19,0.508
2015-02-12 00:32:00,2009E-3,5C000000,-0724,0840,12031,027.9,045.4,0.449,733.2,01.19,0.508
2015-02-12 00:33:00,1916E-3,5C000000,-0724,0839,12065,028.0,045.5,0.450,732.9,01.19,0.508
2015-02-12 00:34:00,1998E-3,5C000000,-0724,0840,12022,028.1,045.5,0.449,733.1,01.19,0.508
2015-02-12 00:35:00,1917E-3,5C000000,-0724,0839,12141,028.1,045.4,0.449,733.2,01.19,0.508
2015-02-12 00:36:00,1889E-3,5C000000,-0724,0839,12110,028.2,045.5,0.449,733.3,01.19,0.508
2015-02-12 00:37:00,1920E-3,5C000000,-0724,0839,12081,028.3,045.5,0.449,733.1,01.19,0.508
2015-02-12 00:38:00,1993E-3,5C000000,-0724,0840,12065,028.3,045.4,0.449,733.1,01.19,0.508
2015-02-12 00:39:00,2102E-3,5C000000,-0724,0840,12220,028.3,045.5,0.449,733.2,01.19,0.508
2015-02-12 00:40:00,2080E-3,5C000000,-0724,0840,12125,028.3,045.5,0.449,733.3,01.19,0.508
2015-02-12 00:41:00,1931E-3,5C000000,-0724,0839,12020,028.3,045.5,0.449,733.1,01.19,0.508
2015-02-12 00:42:00,2079E-3,5C000000,-0724,0840,12257,028.2,045.4,0.449,732.8,01.19,0.508
2015-02-12 00:43:00,1955E-3,5C000000,-0724,0840,12128,028.2,045.4,0.449,733.0,01.19,0.508
2015-02-12 00:44:00,1916E-3,5C000000,-0724,0841,11866,028.2,045.4,0.449,733.1,01.19,0.508
2015-02-12 00:45:00,2012E-3,5C000000,-0724,0840,12028,028.1,045.4,0.449,732.9,01.19,0.508
2015-02-12 00:46:00,2028E-3,5C000000,-0724,0840,12103,028.1,045.4,0.449,733.1,01.19,0.508
2015-02-12 00:47:00,1885E-3,5C000000,-0724,0840,12159,028.1,045.4,0.449,733.1,01.19,0.508
2015-02-12 00:48:00,1929E-3,5C000000,-0724,0841,12079,028.0,045.5,0.449,733.0,01.19,0.508
2015-02-12 00:49:00,1920E-3,5C000000,-0724,0839,11990,028.0,045.5,0.449,733.1,01.19,0.508
2015-02-12 00:50:00,1852E-3,5C000000,-0724,0839,12123,027.9,045.4,0.449,733.0,01.19,0.508
2015-02-12 00:51:00,1797E-3,5C000000,-0724,0840,12163,027.9,045.4,0.449,733.0,01.19,0.508
2015-02-12 00:52:00,1938E-3,5C000000,-0724,0840,12119,027.9,045.4,0.449,732.9,01.19,0.508
2015-02-12 00:53:00,1879E-3,5C000000,-0724,0840,12111,027.9,045.4,0.449,733.0,01.19,0.508
2015-02-12 00:54:00,1949E-3,5C000000,-0724,0840,12207,028.0,045.4,0.449,732.8,01.19,0.508
2015-02-12 00:55:00,2030E-3,5C000000,-0724,0839,12089,028.0,045.4,0.449,732.8,01.19,0.508
2015-02-12 00:56:00,1974E-3,5C000000,-0724,0840,12027,028.0,045.4,0.449,732.7,01.19,0.508
2015-02-12 00:57:00,2073E-3,5C000000,-0724,0839,12024,028.0,045.4,0.449,732.7,01.19,0.508
2015-02-12 00:58:00,1949E-3,5C000000,-0724,0840,11982,028.1,045.5,0.449,732.6,01.19,0.508
2015-02-12 00:59:00,2071E-3,5C000000,-0724,0840,12144,028.2,045.4,0.449,732.5,01.19,0.508
2015-02-12 01:00:00,1983E-3,5C000000,-0724,0840,12204,028.3,045.5,0.449,732.6,01.19,0.508
2015-02-12 01:01:00,1862E-3,5C000000,-0724,0839,12160,028.4,045.5,0.448,732.6,01.19,0.508
2015-02-12 01:02:00,1956E-3,5C000000,-0724,0839,12157,028.4,045.5,0.449,732.7,01.19,0.508
2015-02-12 01:03:00,1975E-3,5C000000,-0724,0840,12146,028.5,045.5,0.449,732.4,01.19,0.508
2015-02-12 01:04:00,1909E-3,5C000000,-0724,0839,12012,028.5,045.5,0.448,732.2,01.19,0.508
2015-02-12 01:05:00,2020E-3,5C000000,-0724,0839,12136,028.5,045.5,0.448,732.2,01.19,0.508
2015-02-12 01:06:00,1936E-3,5C000000,-0724,0841,12110,028.5,045.5,0.448,732.1,01.19,0.508
2015-02-12 01:07:00,1961E-3,5C000000,-0724,0841,12252,028.5,045.5,0.448,732.5,01.19,0.508
2015-02-12 01:08:00,2039E-3,5C000000,-0724,0839,12003,028.4,045.5,0.448,732.3,01.19,0.508
2015-02-12 01:09:00,2029E-3,5C000000,-0724,0840,12050,028.3,045.4,0.448,732.5,01.19,0.508
2015-02-12 01:10:00,2049E-3,5C000000,-0724,0839,12137,028.3,045.4,0.448,732.4,01.19,0.508
2015-02-12 01:11:00,1948E-3,5C000000,-0724,0840,12118,028.2,045.5,0.449,732.5,01.19,0.508
2015-02-12 01:12:00,1978E-3,5C000000,-0724,0840,12169,028.2,045.4,0.448,732.6,01.19,0.508
2015-02-12 01:13:00,2000E-3,5C000000,-0724,0840,12106,028.1,045.4,0.448,732.3,01.19,0.508
2015-02-12 01:14:00,1949E-3,5C000000,-0724,0840,12138,028.1,045.5,0.448,732.4,01.19,0.508
2015-02-12 01:15:00,1973E-3,5C000000,-0724,0840,12102,028.1,045.5,0.448,732.4,01.19,0.508
2015-02-12 01:16:00,1907E-3,5C000000,-0724,0840,12103,028.1,045.4,0.449,732.4,01.19,0.508
2015-02-12 01:17:00,1844E-3,5C000000,-0724,0839,12017,028.2,045.5,0.449,732.4,01.19,0.508
2015-02-12 01:18:00,1974E-3,5C000000,-0724,0840,12115,028.3,045.5,0.449,732.4,01.19,0.508
2015-02-12 01:19:00,2070E-3,5C000000,-0724,0840,12051,028.3,045.5,0.448,732.4,01.19,0.508
2015-02-12 01:20:00,1920E-3,5C000000,-0724,0839,12024,028.4,045.5,0.448,732.4,01.19,0.508
2015-02-12 01:21:00,1940E-3,5C000000,-0724,0840,12039,028.5,045.5,0.448,732.3,01.19,0.508
2015-02-12 01:22:00,1842E-3,5C000000,-0724,0840,12130,028.5,045.5,0.448,732.2,01.19,0.508
2015-02-12 01:23:00,1797E-3,5C000000,-0724,0840,11881,028.5,045.4,0.448,732.4,01.19,0.508
2015-02-12 01:24:00,1912E-3,5C000000,-0724,0840,12078,028.5,045.5,0.448,732.4,01.19,0.508
2015-02-12 01:25:00,1908E-3,5C000000,-0724,0839,11964,028.5,045.5,0.449,732.4,01.19,0.508
2015-02-12 01:26:00,1944E-3,5C000000,-0724,0839,12059,028.4,045.4,0.448,732.2,01.19,0.508
2015-02-12 01:27:00,1932E-3,5C000000,-0724,0840,12172,028.4,045.4,0.448,732.2,01.19,0.508
2015-02-12 01:28:00,1970E-3,5C000000,-0724,0840,12053,028.4,045.5,0.448,732.5,01.19,0.508
2015-02-12 01:29:00,1882E-3,5C000000,-0724,0841,12008,028.4,045.5,0.449,732.4,01.19,0.508
2015-02-12 01:30:00,2082E-3,5C000000,-0724,0839,12093,028.3,045.5,0.448,732.1,01.19,0.508
2015-02-12 01:31:00,1959E-3,5C000000,-0724,0839,12140,028.3,045.4,0.448,732.4,01.19,0.508
2015-02-12 01:32:00,2115E-3,5C000000,-0724,0839,12126,028.2,045.4,0.448,732.3,01.19,0.508
2015-02-12 01:33:00,1973E-3,5C000000,-0724,0840,12205,028.2,045.4,0.448,732.2,01.19,0.508
2015-02-12 01:34:00,1902E-3,5C000000,-0724,0840,12000,028.2,045.4,0.448,732.1,01.19,0.508
2015-02-12 01:35:00,1849E-3,5C000000,-0724,0840,11929,028.1,045.4,0.449,732.1,01.19,0.508
2015-02-12 01:36:00,1789E-3,5C000000,-0724,0840,12294,028.2,045.5,0.448,732.2,01.19,0.508
2015-02-12 01:37:00,1869E-3,5C000000,-0724,0840,12087,028.2,045.5,0.448,731.8,01.19,0.508
2015-02-12 01:38:00,2154E-3,5C000000,-0724,0839,12157,028.3,045.5,0.448,731.8,01.19,0.508
2015-02-12 01:39:00,2012E-3,5C000000,-0724,0840,12112,028.4,045.5,0.449,731.7,01.19,0.508
2015-02-12 01:40:00,2055E-3,5C000000,-0724,0840,12135,028.4,045.4,0.448,731.5,01.19,0.508
2015-02-12 01:41:00,1954E-3,5C000000,-0724,0840,11998,028.5,045.5,0.448,731.7,01.19,0.508
2015-02-12 01:42:00,1999E-3,5C000000,-0724,0841,12240,028.6,045.5,0.448,731.5,01.19,0.508
2015-02-12 01:43:00,1963E-3,5C000000,-0724,0840,12077,028.6,045.4,0.448,731.7,01.19,0.508
2015-02-12 01:44:00,1915E-3,5C000000,-0724,0840,12079,028.7,045.5,0.448,731.1,01.19,0.508
2015-02-12 01:45:00,2016E-3,5C000000,-0724,0840,12032,028.7,045.5,0.448,731.4,01.19,0.508
2015-02-12 01:46:00,2036E-3,5C000000,-0724,0839,12130,028.7,045.5,0.448,731.7,01.19,0.508
2015-02-12 01:47:00,1918E-3,5C000000,-0724,0841,12113,028.8,045.5,0.447,731.5,01.19,0.508
2015-02-12 01:48:00,1951E-3,5C000000,-0724,0840,11986,028.8,045.5,0.448,731.4,01.19,0.508
2015-02-12 01:49:00,2049E-3,5C000000,-0724,0840,12267,028.9,045.5,0.447,730.9,01.19,0.508
2015-02-12 01:50:00,1917E-3,5C000000,-0724,0840,12103,028.9,045.5,0.447,731.2,01.19,0.508
2015-02-12 01:51:00,1993E-3,5C000000,-0724,0840,12143,028.9,045.5,0.447,731.1,01.19,0.508
2015-02-12 01:52:00,1852E-3,5C000000,-0724,0840,11999,029.0,045.5,0.447,731.3,01.19,0.508
2015-02-12 01:53:00,1965E-3,5C000000,-0724,0840,12106,029.0,045.5,0.447,731.4,01.19,0.508
2015-02-12 01:54:00,1994E-3,5C000000,-0724,0840,12085,029.0,045.5,0.447,731.3,01.19,0.508
2015-02-12 01:55:00,1848E-3,5C000000,-0724,0840,12233,029.0,045.5,0.447,731.0,01.19,0.508
2015-02-12 01:56:00,1819E-3,5C000000,-0724,0840,12112,029.0,045.5,0.447,731.2,01.19,0.508
2015-02-12 01:57:00,2016E-3,5C000000,-0724,0840,12058,028.9,045.5,0.447,731.4,01.19,0.508
2015-02-12 01:58:00,1949E-3,5C000000,-0724,0840,12203,029.0,045.5,0.447,731.2,01.19,0.508
2015-02-12 01:59:00,2019E-3,5C000000,-0724,0840,11999,028.8,045.5,0.447,731.2,01.19,0.508
2015-02-12 02:00:00,1913E-3,5C000000,-0724,0840,12175,028.8,045.5,0.447,731.5,01.19,0.508
2015-02-12 02:01:00,1902E-3,5C000000,-0724,0840,11986,028.7,045.4,0.447,731.5,01.19,0.508
2015-02-12 02:02:00,1970E-3,5C000000,-0724,0840,12062,028.6,045.5,0.448,731.8,01.19,0.508
2015-02-12 02:03:00,1917E-3,5C000000,-0724,0840,12124,028.5,045.5,0.447,731.1,01.19,0.508
2015-02-12 02:04:00,2068E-3,5C000000,-0724,0840,11966,028.4,045.5,0.447,731.5,01.19,0.508
2015-02-12 02:05:00,2009E-3,5C000000,-0724,0839,12108,028.4,045.5,0.448,731.3,01.19,0.508
2015-02-12 02:06:00,2119E-3,5C000000,-0724,0839,11952,028.3,045.4,0.447,731.5,01.19,0.508
2015-02-12 02:07:00,2017E-3,5C000000,-0724,0840,12038,028.3,045.5,0.448,731.1,01.19,0.508
2015-02-12 02:08:00,2004E-3,5C000000,-0724,0841,11977,028.3,045.4,0.448,731.4,01.19,0.508
2015-02-12 02:09:00,1991E-3,5C000000,-0724,0840,12096,028.3,045.4,0.448,731.5,01.19,0.508
2015-02-12 02:10:00,1942E-3,5C000000,-0724,0840,12119,028.4,045.5,0.448,731.4,01.19,0.508
2015-02-12 02:11:00,1878E-3,5C000000,-0724,0840,12095,028.5,045.5,0.448,731.7,01.19,0.508
2015-02-12 02:12:00,1879E-3,5C000000,-0724,0839,12038,028.5,045.5,0.448,731.6,01.19,0.508
2015-02-12 02:13:00,1953E-3,5C000000,-0724,0840,12132,028.6,045.5,0.448,731.4,01.19,0.508
2015-02-12 02:14:00,2037E-3,5C000000,-0724,0841,12197,028.6,045.5,0.448,731.5,01.19,0.508
2015-02-12 02:15:00,1930E-3,5C000000,-0724,0841,12050,028.7,045.5,0.448,731.5,01.19,0.508
2015-02-12 02:16:00,2038E-3,5C000000,-0724,0840,12123,028.8,045.5,0.447,731.5,01.19,0.508
2015-02-12 02:17:00,1941E-3,5C000000,-0724,0840,12061,028.9,045.5,0.448,731.1,01.19,0.508
2015-02-12 02:18:00,2040E-3,5C000000,-0724,0839,12206,028.9,045.5,0.447,731.2,01.19,0.508
2015-02-12 02:19:00,1992E-3,5C000000,-0724,0841,12034,028.9,045.5,0.447,731.0,01.19,0.508
2015-02-12 02:20:00,1877E-3,5C000000,-0724,0840,11975,029.0,045.5,0.448,731.4,01.19,0.508
2015-02-12 02:21:00,2101E-3,5C000000,-0724,0839,12139,029.0,045.5,0.447,731.0,01.19,0.508
2015-02-12 02:22:00,2005E-3,5C000000,-0724,0840,12103,029.1,045.5,0.447,730.8,01.19,0.508
2015-02-12 02:23:00,2033E-3,5C000000,-0724,0840,12181,029.1,045.5,0.447,731.2,01.19,0.508
2015-02-12 02:24:00,2106E-3,5C000000,-0724,0841,12066,029.1,045.5,0.447,730.8,01.19,0.508
2015-02-12 02:25:00,2055E-3,5C000000,-0724,0841,11899,029.1,045.5,0.447,731.3,01.19,0.508
2015-02-12 02:26:00,2057E-3,5C000000,-0724,0840,12023,029.1,045.5,0.446,730.8,01.19,0.508
2015-02-12 02:27:00,1995E-3,5C000000,-0724,0841,12030,029.1,045.5,0.447,731.2,01.19,0.508
2015-02-12 02:28:00,2132E-3,5C000000,-0724,0840,12031,029.2,045.5,0.447,731.0,01.19,0.508
2015-02-12 02:29:00,1912E-3,5C000000,-0724,0840,12069,029.2,045.5,0.447,731.2,01.19,0.508
2015-02-12 02:30:00,1967E-3,5C000000,-0724,0841,12094,029.2,045.5,0.447,731.2,01.19,0.508
2015-02-12 02:31:00,2015E-3,5C000000,-0724,0841,12219,029.2,045.5,0.447,731.0,01.19,0.508
2015-02-12 02:32:00,2046E-3,5C000000,-0724,0840,12134,029.2,045.5,0.446,731.0,01.19,0.508
2015-02-12 02:33:00,1932E-3,5C000000,-0724,0840,12085,029.2,045.5,0.447,731.1,01.19,0.508
2015-02-12 02:34:00,1959E-3,5C000000,-0724,0841,12033,029.2,045.5,0.447,731.1,01.19,0.508
2015-02-12 02:35:00,1984E-3,5C000000,-0724,0840,12104,029.2,045.5,0.447,731.0,01.19,0.508
2015-02-12 02:36:00,1848E-3,5C000000,-0724,0840,12139,029.2,045.5,0.446,731.1,01.19,0.508
2015-02-12 02:37:00,2036E-3,5C000000,-0724,0840,11986,029.2,045.5,0.447,731.3,01.19,0.508
2015-02-12 02:38:00,2053E-3,5C000000,-0724,0840,12109,029.2,045.5,0.447,731.0,01.19,0.508
2015-02-12 02:39:00,1895E-3,5C000000,-0724,0841,12200,029.1,045.5,0.447,731.4,01.19,0.508
2015-02-12 02:40:00,2025E-3,5C000000,-0724,0841,11961,029.1,045.5,0.447,731.2,01.19,0.508
2015-02-12 02:41:00,1848E-3,5C000000,-0724,0840,12006,029.0,045.5,0.447,731.5,01.19,0.508
2015-02-12 02:42:00,1961E-3,5C000000,-0724,0840,12123,028.9,045.5,0.447,731.2,01.19,0.508
2015-02-12 02:43:00,1922E-3,5C000000,-0724,0840,12216,028.8,045.5,0.447,731.6,01.19,0.508
2015-02-12 02:44:00,1989E-3,5C000000,-0724,0839,12213,028.8,045.4,0.447,731.4,01.19,0.508
2015-02-12 02:45:00,2019E-3,5C000000,-0724,0840,12076,028.7,045.5,0.447,731.5,01.19,0.508
2015-02-12 02:46:00,2067E-3,5C000000,-0724,0840,12035,028.7,045.5,0.447,731.3,01.19,0.508
2015-02-12 02:47:00,1779E-3,5C000000,-0724,0839,12147,028.8,045.5,0.448,731.7,01.19,0.508
2015-02-12 02:48:00,2090E-3,5C000000,-0724,0841,11798,028.8,045.5,0.447,731.8,01.19,0.508
2015-02-12 02:49:00,1920E-3,5C000000,-0724,0841,11979,028.9,045.5,0.447,731.2,01.19,0.508
2015-02-12 02:50:00,1984E-3,5C000000,-0724,0840,12088,029.0,045.5,0.448,731.7,01.19,0.508
2015-02-12 02:51:00,1963E-3,5C000000,-0724,0841,11955,029.0,045.5,0.447,731.6,01.19,0.508
2015-02-12 02:52:00,1915E-3,5C000000,-0724,0840,12131,029.1,045.5,0.447,731.4,01.19,0.508
2015-02-12 02:53:00,1945E-3,5C000000,-0724,0840,12069,029.1,045.5,0.447,731.4,01.19,0.508
2015-02-12 02:54:00,1929E-3,5C000000,-0724,0840,12073,029.1,045.5,0.447,731.5,01.19,0.508
2015-02-12 02:55:00,1980E-3,5C000000,-0724,0840,11974,029.2,045.5,0.447,731.6,01.19,0.508
2015-02-12 02:56:00,2016E-3,5C000000,-0724,0840,12107,029.2,045.5,0.447,731.6,01.19,0.508
2015-02-12 02:57:00,1952E-3,5C000000,-0724,0842,11846,029.2,045.5,0.447,731.2,01.19,0.508
2015-02-12 02:58:00,1919E-3,5C000000,-0724,0840,12098,029.2,045.5,0.447,731.3,01.19,0.508
2015-02-12 02:59:00,2018E-3,5C000000,-0724,0841,12118,029.2,045.5,0.447,731.1,01.19,0.508
2015-02-12 03:00:00,1886E-3,5C000000,-0724,0840,12235,029.2,045.5,0.447,731.4,01.19,0.508
2015-02-12 03:01:00,1874E-3,5C000000,-0724,0839,12057,029.2,045.5,0.447,731.2,01.19,0.508
2015-02-12 03:02:00,2017E-3,5C000000,-0724,0839,12148,029.2,045.5,0.447,731.6,01.19,0.508
2015-02-12 03:03:00,1911E-3,5C000000,-0724,0840,12082,029.3,045.5,0.447,731.5,01.19,0.508
2015-02-12 03:04:00,1969E-3,5C000000,-0724,0840,12063,029.3,045.5,0.447,731.5,01.19,0.508
2015-02-12 03:05:00,1987E-3,5C000000,-0724,0841,12302,029.3,045.5,0.447,731.7,01.19,0.508
2015-02-12 03:06:00,1971E-3,5C000000,-0724,0841,12083,029.4,045.5,0.447,731.5,01.19,0.508
2015-02-12 03:07:00,1930E-3,5C000000,-0724,0841,12128,029.4,045.5,0.447,731.4,01.19,0.508
2015-02-12 03:08:00,2047E-3,5C000000,-0724,0840,12112,029.3,045.5,0.446,731.4,01.19,0.508
2015-02-12 03:09:00,2003E-3,5C000000,-0724,0840,12119,029.3,045.5,0.446,731.4,01.19,0.508
2015-02-12 03:10:00,1991E-3,5C000000,-0724,0839,12126,029.3,045.5,0.447,731.4,01.19,0.508
2015-02-12 03:11:00,1966E-3,5C000000,-0724,0841,12079,029.2,045.5,0.447,731.6,01.19,0.508
2015-02-12 03:12:00,1997E-3,5C000000,-0724,0841,12145,029.2,045.5,0.446,731.0,01.19,0.508
2015-02-12 03:13:00,2028E-3,5C000000,-0724,0841,12194,029.1,045.5,0.447,731.6,01.19,0.508
2015-02-12 03:14:00,1959E-3,5C000000,-0724,0840,12016,029.0,045.5,0.447,731.0,01.19,0.508
2015-02-12 03:15:00,1888E-3,5C000000,-0724,0840,12206,028.9,045.5,0.447,731.0,01.19,0.508
2015-02-12 03:16:00,1897E-3,5C000000,-0724,0840,11918,028.9,045.5,0.447,731.2,01.19,0.508
2015-02-12 03:17:00,1979E-3,5C000000,-0724,0840,12099,028.8,045.5,0.447,731.0,01.19,0.508
2015-02-12 03:18:00,1969E-3,5C000000,-0724,0841,12051,028.7,045.5,0.447,730.9,01.19,0.508
2015-02-12 03:19:00,1967E-3,5C000000,-0724,0841,12054,028.7,045.4,0.447,731.2,01.19,0.508
2015-02-12 03:20:00,2024E-3,5C000000,-0724,0840,11943,028.7,045.5,0.447,730.8,01.19,0.508
2015-02-12 03:21:00,1945E-3,5C000000,-0724,0840,12037,028.7,045.5,0.447,731.2,01.19,0.508
2015-02-12 03:22:00,1950E-3,5C000000,-0724,0841,12089,028.8,045.5,0.448,731.2,01.19,0.508
2015-02-12 03:23:00,1948E-3,5C000000,-0724,0841,12211,028.8,045.5,0.447,731.2,01.19,0.508
2015-02-12 03:24:00,1937E-3,5C000000,-0724,0840,12050,028.9,045.5,0.447,731.1,01.19,0.508
2015-02-12 03:25:00,1961E-3,5C000000,-0724,0839,12173,028.9,045.5,0.447,731.0,01.19,0.508
2015-02-12 03:26:00,2012E-3,5C000000,-0724,0840,11960,029.0,045.5,0.447,730.8,01.19,0.508
2015-02-12 03:27:00,1923E-3,5C000000,-0724,0840,11964,029.0,045.5,0.447,730.8,01.19,0.508
2015-02-12 03:28:00,1949E-3,5C000000,-0724,0840,12031,029.1,045.5,0.447,731.3,01.19,0.508
2015-02-12 03:29:00,1981E-3,5C000000,-0724,0840,11931,029.1,045.5,0.447,731.3,01.19,0.508
2015-02-12 03:30:00,1904E-3,5C000000,-0724,0840,12114,029.1,045.5,0.447,731.2,01.19,0.508
2015-02-12 03:31:00,1992E-3,5C000000,-0724,0840,12139,029.2,045.5,0.447,730.8,01.19,0.508
2015-02-12 03:32:00,2028E-3,5C000000,-0724,0840,12137,029.2,045.5,0.447,730.9,01.19,0.508
2015-02-12 03:33:00,2009E-3,5C000000,-0724,0840,12087,029.2,045.5,0.446,730.7,01.19,0.508
2015-02-12 03:34:00,1985E-3,5C000000,-0724,0839,12024,029.3,045.5,0.447,731.0,01.19,0.508
2015-02-12 03:35:00,1930E-3,5C000000,-0724,0840,12201,029.3,045.5,0.446,730.4,01.19,0.508
2015-02-12 03:36:00,2024E-3,5C000000,-0724,0840,12106,029.3,045.5,0.447,730.8,01.19,0.508
2015-02-12 03:37:00,1908E-3,5C000000,-0724,0840,12020,029.3,045.5,0.446,730.5,01.19,0.508
2015-02-12 03:38:00,1946E-3,5C000000,-0724,0840,11977,029.4,045.5,0.446,730.8,01.19,0.508
2015-02-12 03:39:00,1982E-3,5C000000,-0724,0840,11947,029.4,045.5,0.446,730.7,01.19,0.508
2015-02-12 03:40:00,2000E-3,5C000000,-0724,0840,12028,029.4,045.5,0.446,730.7,01.19,0.508
2015-02-12 03:41:00,1999E-3,5C000000,-0724,0839,12054,029.4,045.5,0.446,730.4,01.19,0.508
2015-02-12 03:42:00,2007E-3,5C000000,-0724,0841,12075,029.4,045.5,0.446,730.6,01.19,0.508
2015-02-12 03:43:00,1936E-3,5C000000,-0724,0840,11901,029.4,045.5,0.446,730.8,01.19,0.508
2015-02-12 03:44:00,1871E-3,5C000000,-0724,0841,12250,029.4,045.5,0.447,731.0,01.19,0.508
2015-02-12 03:45:00,2019E-3,5C000000,-0724,0840,12067,029.4,045.5,0.446,731.1,01.19,0.508
2015-02-12 03:46:00,2046E-3,5C000000,-0724,0840,12151,029.4,045.5,0.446,731.0,01.19,0.508
2015-02-12 03:47:00,1943E-3,5C000000,-0724,0840,12132,029.5,045.5,0.446,731.1,01.19,0.508
2015-02-12 03:48:00,1957E-3,5C000000,-0724,0840,12079,029.5,045.5,0.446,730.9,01.19,0.508
2015-02-12 03:49:00,2115E-3,5C000000,-0724,0840,12085,029.5,045.5,0.446,731.1,01.19,0.508
2015-02-12 03:50:00,1961E-3,5C000000,-0724,0839,11922,029.5,045.5,0.446,731.2,01.19,0.508
2015-02-12 03:51:00,1934E-3,5C000000,-0724,0840,12078,029.5,045.5,0.447,731.3,01.19,0.508
2015-02-12 03:52:00,1918E-3,5C000000,-0724,0840,12118,029.5,045.5,0.446,731.4,01.19,0.508
2015-02-12 03:53:00,1981E-3,5C000000,-0724,0841,12050,029.5,045.5,0.446,731.7,01.19,0.508
2015-02-12 03:54:00,1934E-3,5C000000,-0724,0840,12003,029.4,045.5,0.446,731.6,01.19,0.508
2015-02-12 03:55:00,2032E-3,5C000000,-0724,0840,12100,029.4,045.5,0.447,731.7,01.19,0.508
2015-02-12 03:56:00,1982E-3,5C000000,-0724,0841,12082,029.4,045.5,0.447,731.9,01.19,0.508
2015-02-12 03:57:00,1929E-3,5C000000,-0724,0840,12025,029.3,045.5,0.447,731.8,01.19,0.508
2015-02-12 03:58:00,2179E-3,5C000000,-0724,0840,12183,029.4,045.5,0.446,732.1,01.19,0.508
2015-02-12 03:59:00,1995E-3,5C000000,-0724,0840,12014,029.4,045.5,0.446,732.0,01.19,0.508
2015-02-12 04:00:00,2053E-3,5C000000,-0724,0840,12124,029.5,045.5,0.447,732.0,01.19,0.508
2015-02-12 04:01:00,2039E-3,5C000000,-0724,0840,12025,029.5,045.5,0.447,732.0,01.19,0.508
2015-02-12 04:02:00,2038E-3,5C000000,-0724,0840,12008,029.5,045.5,0.447,732.2,01.19,0.508
2015-02-12 04:03:00,2108E-3,5C000000,-0724,0840,12041,029.5,045.5,0.447,732.1,01.19,0.508
2015-02-12 04:04:00,2114E-3,5C000000,-0724,0841,12160,029.5,045.5,0.446,731.8,01.19,0.508
2015-02-12 04:05:00,1947E-3,5C000000,-0724,0840,12099,029.5,045.5,0.447,732.1,01.19,0.508
2015-02-12 04:06:00,2046E-3,5C000000,-0724,0840,12065,029.4,045.5,0.447,732.0,01.19,0.508
2015-02-12 04:07:00,1971E-3,5C000000,-0724,0840,12194,029.4,045.5,0.447,732.3,01.19,0.508
2015-02-12 04:08:00,2019E-3,5C000000,-0724,0840,11972,029.5,045.5,0.446,731.9,01.19,0.508
2015-02-12 04:09:00,1958E-3,5C000000,-0724,0841,12157,029.5,045.5,0.447,732.2,01.19,0.508
2015-02-12 04:10:00,2081E-3,5C000000,-0724,0840,12114,029.5,045.5,0.447,732.1,01.19,0.508
2015-02-12 04:11:00,2092E-3,5C000000,-0724,0841,12091,029.5,045.5,0.447,731.9,01.19,0.508
2015-02-12 04:12:00,2044E-3,5C000000,-0724,0840,12104,029.6,045.5,0.447,732.0,01.19,0.508
2015-02-12 04:13:00,2114E-3,5C000000,-0724,0840,12163,029.6,045.5,0.447,731.9,01.19,0.508
2015-02-12 04:14:00,2036E-3,5C000000,-0724,0841,12144,029.6,045.5,0.446,732.1,01.19,0.508
2015-02-12 04:15:00,2092E-3,5C000000,-0724,0841,11916,029.6,045.5,0.446,732.0,01.19,0.508
2015-02-12 04:16:00,1924E-3,5C000000,-0724,0840,12069,029.6,045.5,0.447,732.0,01.19,0.508
2015-02-12 04:17:00,1965E-3,5C000000,-0724,0840,12094,029.6,045.5,0.447,731.9,01.19,0.508
2015-02-12 04:18:00,2020E-3,5C000000,-0724,0840,12085,029.6,045.5,0.447,732.1,01.19,0.508
2015-02-12 04:19:00,1969E-3,5C000000,-0724,0840,12112,029.5,045.5,0.446,732.0,01.19,0.508
2015-02-12 04:20:00,2154E-3,5C000000,-0724,0841,12132,029.5,045.5,0.446,732.3,01.19,0.508